Time,TemperatureF,DewpointF,PressureIn,WindDirection,WindDirectionDegrees,WindSpeedMPH,WindSpeedGustMPH,Humidity,HourlyPrecipIn,Conditions,Clouds,dailyrainin,SoftwareType,DateUTC
2014-08-27 00:00:00,81.0,70.7,29.93,NNE,20,0.0,1.0,71,0.00,,---,0.00,VWS V14.01,2014-08-27 04:00:00,
2014-08-27 00:01:00,81.0,70.7,29.93,NNE,18,3.0,5.0,71,0.00,,---,0.00,VWS V14.01,2014-08-27 04:01:00,
2014-08-27 00:06:00,80.9,71.0,29.93,SW,214,0.0,1.0,72,0.00,,---,0.00,VWS V14.01,2014-08-27 04:06:00,
2014-08-27 00:11:00,80.7,71.2,29.94,North,1,0.0,3.0,73,0.00,,---,0.00,VWS V14.01,2014-08-27 04:11:00,
2014-08-27 00:17:00,80.5,71.1,29.94,ENE,64,0.0,0.0,73,0.00,,---,0.00,VWS V14.01,2014-08-27 04:17:00,
2014-08-27 00:22:00,80.3,71.3,29.94,North,359,0.0,1.0,74,0.00,,---,0.00,VWS V14.01,2014-08-27 04:22:00,
2014-08-27 00:27:00,80.1,71.5,29.94,ENE,64,3.0,3.0,75,0.00,,---,0.00,VWS V14.01,2014-08-27 04:27:00,
2014-08-27 00:32:00,80.0,71.8,29.94,SSW,208,0.0,1.0,76,0.00,,---,0.00,VWS V14.01,2014-08-27 04:32:00,
2014-08-27 00:37:00,79.8,72.3,29.94,NE,45,0.0,3.0,78,0.00,,---,0.00,VWS V14.01,2014-08-27 04:37:00,
2014-08-27 00:42:00,79.7,72.6,29.94,East,85,0.0,3.0,79,0.00,,---,0.00,VWS V14.01,2014-08-27 04:42:00,
2014-08-27 00:47:00,79.5,72.8,29.94,North,349,0.0,1.0,80,0.00,,---,0.00,VWS V14.01,2014-08-27 04:47:00,
2014-08-27 00:52:00,79.3,72.6,29.94,ENE,75,0.0,0.0,80,0.00,,---,0.00,VWS V14.01,2014-08-27 04:52:00,
2014-08-27 00:57:00,79.2,72.9,29.94,NNE,25,3.0,3.0,81,0.00,,---,0.00,VWS V14.01,2014-08-27 04:57:00,
2014-08-27 01:02:00,79.0,73.0,29.94,East,88,0.0,0.0,82,0.00,,---,0.00,VWS V14.01,2014-08-27 05:02:00,
2014-08-27 01:07:00,78.8,72.8,29.93,East,80,0.0,1.0,82,0.00,,---,0.00,VWS V14.01,2014-08-27 05:07:00,
2014-08-27 01:12:00,78.6,73.0,29.93,NNE,33,1.0,1.0,83,0.00,,---,0.00,VWS V14.01,2014-08-27 05:12:00,
2014-08-27 01:17:00,78.5,72.9,29.93,East,88,0.0,3.0,83,0.00,,---,0.00,VWS V14.01,2014-08-27 05:17:00,
2014-08-27 01:22:00,78.4,72.8,29.93,ENE,71,0.0,3.0,83,0.00,,---,0.00,VWS V14.01,2014-08-27 05:22:00,
2014-08-27 01:27:00,78.2,73.0,29.93,ENE,64,0.0,2.0,84,0.00,,---,0.00,VWS V14.01,2014-08-27 05:27:00,
2014-08-27 01:32:00,78.1,72.9,29.93,ESE,104,0.0,3.0,84,0.00,,---,0.00,VWS V14.01,2014-08-27 05:32:00,
2014-08-27 01:37:00,78.0,72.8,29.93,NE,40,5.0,5.0,84,0.00,,---,0.00,VWS V14.01,2014-08-27 05:37:00,
2014-08-27 01:42:00,78.0,72.8,29.93,NE,46,0.0,0.0,84,0.00,,---,0.00,VWS V14.01,2014-08-27 05:42:00,
2014-08-27 01:47:00,77.8,72.6,29.93,SSE,153,0.0,0.0,84,0.00,,---,0.00,VWS V14.01,2014-08-27 05:47:00,
2014-08-27 01:52:00,77.7,72.8,29.93,East,79,0.0,0.0,85,0.00,,---,0.00,VWS V14.01,2014-08-27 05:52:00,
2014-08-27 01:57:00,77.5,72.6,29.93,NNE,20,0.0,0.0,85,0.00,,---,0.00,VWS V14.01,2014-08-27 05:57:00,
2014-08-27 02:02:00,77.3,72.4,29.94,NNE,16,0.0,0.0,85,0.00,,---,0.00,VWS V14.01,2014-08-27 06:02:00,
2014-08-27 02:07:00,77.1,72.6,29.93,ENE,67,0.0,1.0,86,0.00,,---,0.00,VWS V14.01,2014-08-27 06:07:00,
2014-08-27 02:12:00,76.9,72.4,29.93,SE,142,0.0,0.0,86,0.00,,---,0.00,VWS V14.01,2014-08-27 06:12:00,
2014-08-27 02:17:00,76.8,72.3,29.93,ENE,78,0.0,0.0,86,0.00,,---,0.00,VWS V14.01,2014-08-27 06:17:00,
2014-08-27 02:22:00,76.7,72.5,29.93,East,79,0.0,0.0,87,0.00,,---,0.00,VWS V14.01,2014-08-27 06:22:00,
2014-08-27 02:27:00,76.7,72.5,29.93,East,99,0.0,0.0,87,0.00,,---,0.00,VWS V14.01,2014-08-27 06:27:00,
2014-08-27 02:32:00,76.7,72.5,29.93,ENE,60,0.0,0.0,87,0.00,,---,0.00,VWS V14.01,2014-08-27 06:32:00,
2014-08-27 02:37:00,76.7,72.5,29.92,ENE,67,0.0,1.0,87,0.00,,---,0.00,VWS V14.01,2014-08-27 06:37:00,
2014-08-27 02:43:00,76.9,72.7,29.93,NNE,26,0.0,0.0,87,0.00,,---,0.00,VWS V14.01,2014-08-27 06:43:00,
2014-08-27 02:48:00,77.0,72.8,29.92,ENE,75,0.0,0.0,87,0.00,,---,0.00,VWS V14.01,2014-08-27 06:48:00,
2014-08-27 02:53:00,77.2,72.7,29.92,South,173,0.0,0.0,86,0.00,,---,0.00,VWS V14.01,2014-08-27 06:53:00,
2014-08-27 02:58:00,77.3,72.8,29.92,South,172,0.0,0.0,86,0.00,,---,0.00,VWS V14.01,2014-08-27 06:58:00,
2014-08-27 03:03:00,77.3,72.8,29.92,NNE,31,0.0,0.0,86,0.00,,---,0.00,VWS V14.01,2014-08-27 07:03:00,
2014-08-27 03:08:00,77.3,72.8,29.92,NE,37,0.0,1.0,86,0.00,,---,0.00,VWS V14.01,2014-08-27 07:08:00,
2014-08-27 03:13:00,77.3,72.4,29.92,North,352,0.0,0.0,85,0.00,,---,0.00,VWS V14.01,2014-08-27 07:13:00,
2014-08-27 03:18:00,77.4,72.5,29.92,East,83,0.0,0.0,85,0.00,,---,0.00,VWS V14.01,2014-08-27 07:18:00,
2014-08-27 03:23:00,77.4,72.5,29.92,North,354,0.0,0.0,85,0.00,,---,0.00,VWS V14.01,2014-08-27 07:23:00,
2014-08-27 03:28:00,77.4,72.5,29.92,ENE,68,0.0,1.0,85,0.00,,---,0.00,VWS V14.01,2014-08-27 07:28:00,
2014-08-27 03:33:00,77.3,72.4,29.92,East,80,2.0,4.0,85,0.00,,---,0.00,VWS V14.01,2014-08-27 07:33:00,
2014-08-27 03:38:00,77.3,72.4,29.92,East,99,0.0,0.0,85,0.00,,---,0.00,VWS V14.01,2014-08-27 07:38:00,
2014-08-27 03:43:00,77.3,72.4,29.92,NE,54,0.0,2.0,85,0.00,,---,0.00,VWS V14.01,2014-08-27 07:43:00,
2014-08-27 03:48:00,77.3,72.4,29.92,ENE,58,0.0,0.0,85,0.00,,---,0.00,VWS V14.01,2014-08-27 07:48:00,
2014-08-27 03:53:00,77.3,72.4,29.91,ENE,74,0.0,1.0,85,0.00,,---,0.00,VWS V14.01,2014-08-27 07:53:00,
2014-08-27 03:58:00,77.3,72.4,29.91,ENE,65,0.0,2.0,85,0.00,,---,0.00,VWS V14.01,2014-08-27 07:58:00,
2014-08-27 04:03:00,77.3,72.8,29.91,ESE,114,0.0,0.0,86,0.00,,---,0.00,VWS V14.01,2014-08-27 08:03:00,
2014-08-27 04:08:00,77.3,72.4,29.91,North,3,0.0,1.0,85,0.00,,---,0.00,VWS V14.01,2014-08-27 08:08:00,
2014-08-27 04:13:00,77.2,72.3,29.91,NE,46,0.0,0.0,85,0.00,,---,0.00,VWS V14.01,2014-08-27 08:13:00,
2014-08-27 04:18:00,77.2,72.7,29.91,East,94,0.0,1.0,86,0.00,,---,0.00,VWS V14.01,2014-08-27 08:18:00,
2014-08-27 04:24:00,77.1,72.6,29.91,SE,127,0.0,0.0,86,0.00,,---,0.00,VWS V14.01,2014-08-27 08:24:00,
2014-08-27 04:29:00,77.0,72.5,29.92,SE,125,0.0,0.0,86,0.00,,---,0.00,VWS V14.01,2014-08-27 08:29:00,
2014-08-27 04:34:00,77.0,72.5,29.92,NNE,30,0.0,0.0,86,0.00,,---,0.00,VWS V14.01,2014-08-27 08:34:00,
2014-08-27 04:39:00,76.9,72.4,29.92,SE,129,1.0,2.0,86,0.00,,---,0.00,VWS V14.01,2014-08-27 08:39:00,
2014-08-27 04:44:00,76.9,72.4,29.92,ENE,57,0.0,1.0,86,0.00,,---,0.00,VWS V14.01,2014-08-27 08:44:00,
2014-08-27 04:49:00,76.9,72.4,29.92,WSW,252,0.0,2.0,86,0.00,,---,0.00,VWS V14.01,2014-08-27 08:49:00,
2014-08-27 04:54:00,76.8,72.3,29.92,ESE,114,0.0,2.0,86,0.00,,---,0.00,VWS V14.01,2014-08-27 08:54:00,
2014-08-27 04:59:00,76.7,72.2,29.92,NE,51,0.0,3.0,86,0.00,,---,0.00,VWS V14.01,2014-08-27 08:59:00,
2014-08-27 05:04:00,76.7,72.5,29.92,ESE,110,0.0,0.0,87,0.00,,---,0.00,VWS V14.01,2014-08-27 09:04:00,
2014-08-27 05:09:00,76.5,72.3,29.92,ESE,103,0.0,0.0,87,0.00,,---,0.00,VWS V14.01,2014-08-27 09:09:00,
2014-08-27 05:14:00,76.3,72.2,29.92,ENE,58,0.0,0.0,87,0.00,,---,0.00,VWS V14.01,2014-08-27 09:14:00,
2014-08-27 05:19:00,76.1,71.9,29.92,ENE,58,0.0,0.0,87,0.00,,---,0.00,VWS V14.01,2014-08-27 09:19:00,
2014-08-27 05:24:00,76.0,72.2,29.92,SE,129,0.0,0.0,88,0.00,,---,0.00,VWS V14.01,2014-08-27 09:24:00,
2014-08-27 05:29:00,75.8,72.0,29.92,SE,131,0.0,0.0,88,0.00,,---,0.00,VWS V14.01,2014-08-27 09:29:00,